User: anonymous   Login
Location: Unspecified
(0.0000°N, 0.0000°E)
Time: 15:28:22
(UTC+00:00)
Language:

PAYLOAD G - Orbit

View from above orbital plane
View from above orbital plane
View from above satellite
View from above satellite

Ground track
Ground track

The orbit data is extracted from the following two-line orbital elements,

1 27846U 03031G   18108.94614073 +.00000026 +00000-0 +31311-4 0  9997
2 27846 098.6838 117.0965 0009827 150.5724 209.6009 14.22161619767773
Epoch (UTC): 18 April 2018 22:42:26
Eccentricity: 0.0009827
inclination: 98.6838°
perigee height: 811 km
apogee height: 825 km
right ascension of ascending node: 117.0965°
argument of perigee: 150.5724°
revolutions per day: 14.22161619
mean anomaly at epoch: 209.6009°
orbit number at epoch: 76777

The dashed part of the orbit path shows where the satellite is in the earth's shadow,  

DLR